Starlink 31363

operational
NORAD ID: 59782 Int'l Des: 2024-093 Owner: SPXS Country: US Constellation: starlink
LEOCIRCULAR

About Starlink 31363

Description loading...

Live Position

Loading 3D Globe...

Upcoming Passes

Altitude History

Altitude vs Time

uPlot chart will show altitude changes over time

Two-Line Element Set

1 59782U 24093A 25259.96898083 -.00001675 00000-0 -51376-4 0 9990
2 59782 43.0007 106.7727 0001509 239.4060 120.6643 15.27573284 76162
Epoch: Sep 16, 2025 • Age: 33 hours

Current Status

Altitude 490.0 km
Velocity 7.62 km/s
Sub-Earth Point -28.24°S, 53.67°W
Launch Date May 18, 2024
Age 1.3 years
Type internet

Technical Details

Classification Payload
Mass 730.00 kg
Dry Mass 700.00 kg
Total Mass 730.00 kg
Length 0.30 m
Diameter 4.10 m
Span 29.00 m
Shape Box + pan
Manufacturer SPXS
Bus Type Starlink V2M
Phase Status In Orbit
Owner/State SPXS/US

Large Constellations

Loading constellations...